| time (UTC) | temp F | wind direction | speed MPH | gust MPH | rain 1hr in | rain 24hr in | rain mn in | humidity % | barometer mb |
| 20260509230022 | 46 | 132 | 0.0 | 0.0 | 0.00 | 0.22 | 0.22 | 92 | 1011.7 |
| 20260509224511 | 46 | 132 | 0.0 | 1.0 | 0.00 | 0.22 | 0.22 | 92 | 1011.8 |
| 20260509223011 | 45 | 132 | 0.0 | 0.0 | 0.00 | 0.22 | 0.22 | 92 | 1011.8 |
| 20260509221511 | 46 | 132 | 0.0 | 1.0 | 0.00 | 0.22 | 0.22 | 92 | 1011.9 |
| 20260509220008 | 46 | 99 | 0.0 | 0.0 | 0.00 | 0.22 | 0.22 | 92 | 1012.0 |
| 20260509214508 | 46 | 99 | 0.0 | 1.0 | 0.00 | 0.22 | 0.22 | 92 | 1012.2 |
| 20260509213010 | 46 | 99 | 0.0 | 0.0 | 0.00 | 0.22 | 0.22 | 91 | 1012.2 |
| 20260509211509 | 46 | 99 | 0.0 | 0.0 | 0.01 | 0.22 | 0.22 | 91 | 1012.2 |
| 20260509210006 | 46 | 112 | 0.0 | 2.0 | 0.01 | 0.22 | 0.22 | 91 | 1012.1 |
| 20260509204505 | 46 | 112 | 0.0 | 1.0 | 0.01 | 0.22 | 0.22 | 91 | 1012.1 |
| 20260509203004 | 46 | 103 | 0.0 | 2.0 | 0.01 | 0.22 | 0.22 | 91 | 1012.2 |
| 20260509201510 | 46 | 118 | 0.0 | 2.0 | 0.01 | 0.21 | 0.21 | 91 | 1012.2 |
| 20260509200002 | 46 | 99 | 0.0 | 1.0 | 0.02 | 0.21 | 0.21 | 91 | 1012.4 |
| 20260509194502 | 46 | 156 | 0.0 | 0.0 | 0.04 | 0.21 | 0.21 | 91 | 1012.3 |
| 20260509193101 | 46 | 156 | 0.0 | 2.0 | 0.06 | 0.21 | 0.21 | 91 | 1012.5 |
| 20260509191608 | 46 | 293 | 0.0 | 1.0 | 0.08 | 0.20 | 0.20 | 91 | 1012.6 |
| 20260509190058 | 46 | 137 | 0.0 | 1.0 | 0.09 | 0.19 | 0.19 | 91 | 1012.9 |
| 20260509184609 | 46 | 114 | 0.0 | 4.0 | 0.09 | 0.17 | 0.17 | 90 | 1012.9 |
| 20260509183100 | 46 | 98 | 0.0 | 1.0 | 0.08 | 0.14 | 0.14 | 90 | 1012.9 |
| 20260509181602 | 47 | 99 | 0.0 | 2.0 | 0.07 | 0.12 | 0.12 | 90 | 1013.0 |
| 20260509180107 | 47 | 78 | 0.0 | 2.0 | 0.05 | 0.09 | 0.09 | 89 | 1013.2 |
| 20260509174551 | 47 | 94 | 0.0 | 2.0 | 0.06 | 0.08 | 0.08 | 89 | 1013.3 |
| 20260509173103 | 47 | 148 | 0.0 | 3.0 | 0.04 | 0.06 | 0.06 | 89 | 1013.4 |
| 20260509171550 | 47 | 58 | 0.0 | 3.0 | 0.03 | 0.05 | 0.05 | 88 | 1013.5 |
| 20260509170050 | 47 | 114 | 0.0 | 5.0 | 0.03 | 0.04 | 0.04 | 87 | 1013.6 |
| 20260509164548 | 47 | 110 | 0.0 | 2.0 | 0.01 | 0.02 | 0.02 | 86 | 1013.6 |
| 20260509163051 | 47 | 90 | 0.0 | 3.0 | 0.01 | 0.02 | 0.02 | 85 | 1013.7 |
| 20260509161558 | 48 | 101 | 0.0 | 3.0 | 0.02 | 0.02 | 0.02 | 84 | 1013.7 |
| 20260509160047 | 48 | 82 | 0.0 | 2.0 | 0.01 | 0.01 | 0.01 | 83 | 1014.1 |
| 20260509154549 | 48 | 126 | 0.0 | 3.0 | 0.01 | 0.01 | 0.01 | 80 | 1014.3 |
| 20260509153056 | 49 | 139 | 0.0 | 2.0 | 0.01 | 0.01 | 0.01 | 78 | 1014.4 |
| 20260509151545 | 49 | 124 | 0.0 | 2.0 | 0.00 | 0.00 | 0.00 | 75 | 1014.2 |
| 20260509150044 | 50 | 132 | 0.0 | 3.0 | 0.00 | 0.00 | 0.00 | 71 | 1014.1 |
| 20260509144546 | 51 | 77 | 0.0 | 6.0 | 0.00 | 0.00 | 0.00 | 66 | 1014.1 |
| 20260509143042 | 51 | 99 | 0.0 | 3.0 | 0.00 | 0.00 | 0.00 | 56 | 1014.0 |
| 20260509141543 | 51 | 90 | 0.0 | 2.0 | 0.00 | 0.00 | 0.00 | 55 | 1013.9 |
| 20260509140052 | 51 | 142 | 0.0 | 7.0 | 0.00 | 0.00 | 0.00 | 58 | 1013.9 |
| 20260509134532 | 48 | 26 | 0.0 | 0.0 | 0.00 | 0.00 | 0.00 | 68 | 1014.0 |
| 20260509133028 | 46 | 309 | 0.0 | 2.0 | 0.00 | 0.00 | 0.00 | 71 | 1014.2 |
| 20260509131524 | 44 | 286 | 1.0 | 3.0 | 0.00 | 0.00 | 0.00 | 72 | 1014.1 |
| 20260509130020 | 42 | 290 | 2.0 | 4.0 | 0.00 | 0.00 | 0.00 | 75 | 1014.2 |
| 20260509124514 | 40 | 309 | 1.0 | 3.0 | 0.00 | 0.00 | 0.00 | 78 | 1014.5 |
| 20260509123010 | 39 | 311 | 1.0 | 3.0 | 0.00 | 0.00 | 0.00 | 81 | 1014.8 |
| 20260509121510 | 38 | 309 | 0.0 | 3.0 | 0.00 | 0.00 | 0.00 | 85 | 1014.9 |
| 20260509120010 | 38 | 14 | 0.0 | 1.0 | 0.00 | 0.00 | 0.00 | 89 | 1015.0 |
| 20260509114509 | 36 | 14 | 0.0 | 2.0 | 0.00 | 0.00 | 0.00 | 89 | 1015.2 |
| 20260509113008 | 36 | 20 | 0.0 | 2.0 | 0.00 | 0.00 | 0.00 | 92 | 1015.3 |
| 20260509111506 | 36 | 15 | 0.0 | 1.0 | 0.00 | 0.00 | 0.00 | 93 | 1015.3 |
| 20260509110005 | 34 | 15 | 0.0 | 0.0 | 0.00 | 0.00 | 0.00 | 93 | 1015.3 |
| 20260509104504 | 33 | 15 | 0.0 | 2.0 | 0.00 | 0.00 | 0.00 | 93 | 1015.2 |
| 20260509103004 | 32 | 21 | 0.0 | 0.0 | 0.00 | 0.00 | 0.00 | 93 | 1015.2 |
| 20260509101628 | 31 | 13 | 0.0 | 0.0 | 0.00 | 0.00 | 0.00 | 92 | 1014.8 |
| 20260509094601 | 29 | 179 | 0.0 | 0.0 | 0.00 | 0.00 | 0.00 | 92 | 1014.4 |
| 20260509093058 | 29 | 179 | 0.0 | 0.0 | 0.00 | 0.00 | 0.00 | 92 | 1014.3 |
| 20260509091555 | 29 | 179 | 0.0 | 0.0 | 0.00 | 0.00 | 0.00 | 91 | 1014.3 |
| 20260509090056 | 30 | 179 | 0.0 | 0.0 | 0.00 | 0.00 | 0.00 | 91 | 1014.1 |
| 20260509084557 | 31 | 25 | 0.0 | 0.0 | 0.00 | 0.00 | 0.00 | 91 | 1014.0 |
| 20260509081544 | 32 | 32 | 1.0 | 3.0 | 0.00 | 0.00 | 0.00 | 92 | 1014.0 |
| 20260509080048 | 31 | 127 | 0.0 | 0.0 | 0.00 | 0.00 | 0.00 | 91 | 1014.0 |
| 20260509074553 | 31 | 127 | 0.0 | 1.0 | 0.00 | 0.00 | 0.00 | 90 | 1014.1 |
| 20260509073057 | 31 | 25 | 0.0 | 0.0 | 0.00 | 0.00 | 0.00 | 90 | 1014.1 |
| 20260509071535 | 32 | 25 | 0.0 | 0.0 | 0.00 | 0.00 | 0.00 | 89 | 1014.1 |
| 20260509070034 | 33 | 25 | 0.0 | 1.0 | 0.00 | 0.00 | 0.00 | 88 | 1014.2 |
| 20260509064530 | 34 | 25 | 0.0 | 0.0 | 0.00 | 0.00 | 0.00 | 87 | 1014.2 |
| 20260509063031 | 35 | 25 | 0.0 | 2.0 | 0.00 | 0.00 | 0.00 | 87 | 1014.1 |
| 20260509061525 | 35 | 19 | 0.0 | 1.0 | 0.00 | 0.00 | 0.00 | 84 | 1014.1 |
| 20260509060028 | 36 | 22 | 1.0 | 3.0 | 0.00 | 0.00 | 0.00 | 85 | 1014.1 |
| 20260509054518 | 36 | 17 | 0.0 | 2.0 | 0.00 | 0.00 | 0.00 | 85 | 1014.1 |
| 20260509053026 | 37 | 11 | 0.0 | 2.0 | 0.00 | 0.00 | 0.00 | 85 | 1013.9 |
| 20260509051515 | 37 | 25 | 1.0 | 3.0 | 0.00 | 0.00 | 0.00 | 85 | 1013.7 |
| 20260509050011 | 37 | 8 | 0.0 | 2.0 | 0.00 | 0.00 | 0.00 | 86 | 1013.6 |
| 20260509044507 | 37 | 207 | 0.0 | 0.0 | 0.00 | 0.00 | 0.00 | 82 | 1013.4 |
| 20260509043004 | 37 | 207 | 0.0 | 1.0 | 0.00 | 0.00 | 0.00 | 79 | 1013.4 |
| 20260509041600 | 39 | 272 | 0.0 | 1.0 | 0.00 | 0.00 | 0.00 | 75 | 1013.4 |
| 20260509040109 | 39 | 276 | 0.0 | 1.0 | 0.00 | 0.00 | 0.00 | 74 | 1013.3 |
| 20260509034556 | 40 | 281 | 0.0 | 1.0 | 0.00 | 0.00 | 0.00 | 73 | 1013.2 |
| 20260509033114 | 41 | 281 | 0.0 | 2.0 | 0.00 | 0.00 | 0.00 | 72 | 1013.1 |
| 20260509031552 | 41 | 278 | 0.0 | 2.0 | 0.00 | 0.00 | 0.00 | 73 | 1012.9 |
| 20260509030052 | 40 | 245 | 0.0 | 1.0 | 0.00 | 0.00 | 0.00 | 74 | 1012.8 |
| 20260509024558 | 41 | 252 | 0.0 | 1.0 | 0.00 | 0.00 | 0.00 | 72 | 1012.7 |
| 20260509023049 | 41 | 236 | 0.0 | 1.0 | 0.00 | 0.00 | 0.00 | 70 | 1012.6 |
| 20260509021548 | 43 | 272 | 0.0 | 1.0 | 0.00 | 0.00 | 0.00 | 68 | 1012.4 |
| 20260509020056 | 43 | 248 | 0.0 | 1.0 | 0.00 | 0.00 | 0.00 | 66 | 1012.3 |
| 20260509014544 | 45 | 172 | 0.0 | 2.0 | 0.00 | 0.00 | 0.00 | 62 | 1012.1 |
| 20260509013042 | 46 | 266 | 0.0 | 1.0 | 0.00 | 0.00 | 0.00 | 60 | 1011.9 |
| 20260509011544 | 47 | 276 | 0.0 | 1.0 | 0.00 | 0.00 | 0.00 | 58 | 1011.6 |
| 20260509010040 | 47 | 261 | 0.0 | 1.0 | 0.00 | 0.00 | 0.00 | 55 | 1011.4 |
| 20260509004535 | 47 | 270 | 0.0 | 2.0 | 0.00 | 0.00 | 0.00 | 52 | 1011.1 |
| 20260509003036 | 48 | 214 | 0.0 | 2.0 | 0.00 | 0.00 | 0.00 | 49 | 1011.0 |
| 20260509001531 | 49 | 297 | 0.0 | 1.0 | 0.00 | 0.00 | 0.00 | 44 | 1010.7 |
| 20260509000030 | 50 | 284 | 0.0 | 3.0 | 0.00 | 0.00 | 0.00 | 42 | 1010.5 |
| 20260508234530 | 50 | 302 | 0.0 | 4.0 | 0.00 | 0.00 | 0.00 | 40 | 1010.3 |
| 20260508233034 | 51 | 288 | 0.0 | 4.0 | 0.00 | 0.00 | 0.00 | 40 | 1010.1 |
| 20260508231526 | 51 | 289 | 2.0 | 7.0 | 0.00 | 0.00 | 0.00 | 39 | 1010.0 |